Погода в Ново-Месте

Словения     45°47′59″N   15°10′48″E
темп.,
°C
ветер,
м/с
пор.,
м/с
влажн.,
%
обл.,
%
осадки,
мм/ч
давл.,
гПа
погр.,
м
17 августа, ср
ср1723:00+19з11770 0.0 101213
02:00+18з21810 0.0 101316
05:00+17зсз21860 0.0 101317
08:00+20зсз12720 0.0 1013130
11:00+28зюз12430 0.0 10131121
14:00+32з24300 0.0 10112619
17:00+31зсз45310 0.0 10112183
20:00+22зюз116727 0.0 101111
18 августа, чт
чт1823:00+20зюз117610 0.0 101212
02:00+19зсз11795 0.0 101213
05:00+18зсз11830 0.0 101214
08:00+22з12650 0.0 101296
11:00+30з2434100 0.0 10111175
14:00+32юз5830100 0.0 10111799
17:00+31юз2434100 0.0 10101124
20:00+23ююз11590 0.0 100911
19 августа, пт
пт1923:00+21з226086 0.0 101022
02:00+20зсз2268100 0.0 100925
05:00+18з2273100 0.0 100940
08:00+20зюз2376100 0.1 101282
11:00+21сз347776 0.3 1009271
14:00+21в1282100 2.4 1010187
17:00+27ю224853 0.0 10081143
20:00+21сз117728 0.2 100912
20 августа, сб
сб2023:00+17с11974 3.3 101114
02:00+16зсз22949 3.3 101118
05:00+15сз219741 0.0 101124
08:00+17с1296100 1.6 1013132
11:00+22ссв237840 1.6 1014710
14:00+23ссв13765 4.4 1013868
17:00+24с13585 1.9 1012768
20:00+19зсз11805 2.1 101211
21 августа, вс
вс2123:00+17всв11845 0.1 101418
02:00+15ююз11961 0.1 101411
05:00+15ююз11969 0.0 101311
08:00+18з11855 0.0 1013127
11:00+24св135145 0.0 10121162
14:00+22в235722 0.0 1012457
17:00+21ссв1163100 0.0 101057
20:00+17в118350 0.2 101112